Location: Burbank
(38.7788°N, 114.0429°W)
Time: 22:18:05
(UTC+00:00)

S-56A Canister/Altair - Pass Details

Date: 16 May 2026
Orbit: 633 x 2484 km, 38.9° (Epoch: 1 June)

Event Time Altitude Azimuth Distance (km) Brightness Sun altitude
Rises 03:43:28 0° 241° (WSW) 3,177 11.1 -11.1°
Reaches altitude 10° 03:46:03 10° 237° (WSW) 2,127 10.1 -11.6°
Maximum altitude 03:50:35 53° 160° (SSE) 779 7.2 -12.3°
Drops below altitude 10° 03:54:57 10° 84° (E) 2,044 9.3 -12.9°
Enters shadow 03:55:01 10° 83° (E) 2,070 9.3 -12.9°
Sets 03:57:24 0° 79° (E) 3,039 - -13.3°
